Theta_e
290 287 285 288 288 286 285 284 284 285 290 287 288 288 290 288 286 285 285 285 285 285 287 287 287 286 287 288 289 290 291 292 294 294 296 296 293 294 295 295 296 296 297 301
287 284 289 289 289 287 285 283 283 287 289 288 287 288 286 287 286 286 285 285 284 284 285 285 285 285 285 285 287 288 289 290 292 292 292 292 292 291 291 293 293 293 293 294
286 290 291 290 287 286 284 283 284 286 286 286 284 284 284 286 286 286 286 286 285 284 283 283 283 283 283 283 283 285 286 288 289 291 291 291 290 289 288 288 288 288 288 289
287 291 291 287 287 288 284 289 288 286 285 281 284 279 282 284 284 284 284 283 283 283 284 283 282 282 282 282 283 284 284 285 286 288 287 286 285 283 284 285 285 285 285 285
289 288 287 288 288 290 288 289 287 285 282 280 280 278 281 283 282 282 282 283 283 283 283 282 282 282 282 282 281 282 283 283 283 284 284 283 282 282 282 282 283 283 284 284
290 290 290 290 288 290 289 286 285 282 280 276 281 281 280 281 284 283 283 283 284 283 283 283 282 282 281 281 281 281 281 281 282 282 282 281 281 280 280 280 280 281 282 282
286 287 288 289 286 286 286 283 278 276 275 276 279 278 282 285 285 285 284 283 283 283 282 282 281 280 280 280 280 281 281 280 281 280 280 280 279 279 279 279 279 279 280 280
283 282 288 289 287 285 284 284 279 271 272 275 280 278 283 284 284 285 286 284 283 282 282 282 281 280 279 280 280 280 280 280 280 280 279 279 279 279 279 279 278 278 279 279
282 283 286 286 287 288 284 281 284 278 268 272 279 281 284 283 282 282 282 282 282 282 282 283 282 281 280 279 279 280 280 280 279 279 279 279 278 278 278 277 278 277 278 280
287 282 286 286 288 287 286 287 281 279 271 268 277 278 280 282 281 281 281 281 282 283 283 283 282 282 281 280 279 279 279 279 279 279 279 279 278 278 278 278 278 278 278 278
288 286 283 286 285 284 284 282 282 283 279 272 269 276 282 284 283 282 283 283 284 284 283 283 282 282 281 280 279 279 278 278 279 279 279 278 278 278 278 278 278 278 278 278
290 286 279 283 284 284 284 284 284 281 276 274 275 279 285 284 285 285 284 285 285 285 284 283 282 281 280 279 279 278 278 278 279 279 279 279 279 278 278 277 278 278 277 278
291 283 274 278 282 283 282 283 283 282 279 273 273 278 285 284 283 284 284 284 284 284 284 283 281 280 279 279 279 278 279 279 279 279 278 278 278 278 277 277 277 277 277 276
294 284 281 280 280 283 281 282 283 281 274 276 280 282 281 283 284 283 284 284 284 284 283 282 280 279 279 279 278 278 278 279 279 279 278 278 278 277 277 277 276 276 275 274
290 280 281 281 281 282 282 282 281 280 283 280 283 281 282 286 285 285 285 284 283 283 282 280 280 280 279 278 278 278 277 278 278 278 277 277 278 277 276 274 274 273 273 272
286 279 281 277 282 281 280 281 280 282 281 279 279 280 284 284 283 283 283 282 281 282 283 281 281 281 280 280 279 279 277 277 278 277 277 277 275 274 273 272 272 271 271 270
284 280 278 278 275 277 277 279 280 280 281 282 279 284 279 279 281 281 280 280 281 282 283 283 280 280 280 280 281 278 278 277 275 274 272 271 271 271 270 270 269 269 268 268
281 278 280 271 274 271 279 275 278 282 282 280 277 275 278 279 279 280 279 280 280 280 281 281 280 279 279 279 278 278 278 276 275 273 270 270 270 268 268 267 267 267 267 266
283 281 273 272 271 276 277 274 273 274 275 278 280 281 278 278 276 276 278 279 279 278 279 279 280 278 277 278 277 277 275 275 273 272 271 269 268 265 266 263 264 264 264 264
281 282 282 270 271 269 272 273 276 278 272 275 278 277 275 276 270 273 277 278 278 278 278 278 279 278 277 277 277 275 273 272 271 272 271 269 267 262 262 264 262 263 261 264
274 275 277 271 272 272 274 275 277 268 273 271 274 274 274 273 275 277 278 277 278 278 278 278 277 278 278 276 274 273 271 271 270 269 267 266 265 262 261 260 261 259 258 262
272 273 271 271 270 270 276 275 273 277 276 276 275 276 276 277 278 277 278 278 277 277 278 279 277 276 277 274 274 272 271 269 267 266 265 264 261 261 262 255 256 255 255 255
272 274 271 274 273 276 278 277 279 279 277 276 276 277 277 277 277 277 277 277 277 277 278 277 276 276 274 271 272 271 269 266 264 262 260 259 261 261 261 255 257 257 255 254
273 274 273 273 274 275 277 279 279 279 278 279 279 278 277 276 277 278 278 277 277 276 276 273 271 271 271 268 269 267 266 264 260 256 260 260 258 260 259 260 260 256 255 256
275 274 271 271 275 276 277 278 279 279 279 278 278 278 278 277 278 277 277 276 276 276 273 271 272 273 271 267 265 263 263 261 258 257 260 260 260 259 259 260 259 259 260 260
275 274 272 270 277 277 277 279 280 278 278 278 277 276 276 277 277 276 275 276 275 275 270 270 270 268 266 265 263 260 260 259 258 259 260 260 260 260 259 259 258 264 267 269
Wind_Speed
1 4 9 13 10 2 5 4 5 3 3 2 7 7 7 4 7 7 6 6 6 6 6 6 8 8 8 9 11 11 11 9 7 5 4 7 8 7 9 10 13 14 13 14
4 7 10 4 4 5 3 3 6 5 3 5 4 9 3 5 3 5 7 6 5 4 6 7 9 11 11 9 10 12 12 11 9 4 3 4 4 5 6 7 12 12 12 13
8 6 7 7 5 6 5 7 5 7 2 1 2 8 3 4 5 5 4 4 5 5 4 5 7 8 8 10 10 10 9 10 9 8 4 4 5 4 5 8 8 12 13 13
7 4 6 5 7 8 5 8 6 4 4 5 1 6 4 5 5 5 5 5 6 5 3 4 5 6 7 8 8 9 10 11 10 9 12 15 10 9 4 5 5 8 12 12
8 7 6 7 7 8 7 5 6 4 4 2 3 1 8 4 6 6 6 5 5 5 5 4 5 6 6 7 8 7 8 12 11 11 10 9 12 7 3 4 8 9 9 11
5 1 6 7 2 5 9 7 7 5 3 1 8 7 4 6 5 6 6 7 8 8 7 5 4 5 4 4 4 5 8 8 8 9 10 11 11 7 8 7 7 6 5 7
1 4 2 3 6 3 5 6 1 4 2 7 1 2 9 7 5 7 15 12 8 6 6 6 6 4 4 5 4 5 6 8 7 9 9 8 8 9 9 6 5 6 5 4
7 3 11 6 6 8 7 7 7 8 5 5 1 7 7 2 4 6 11 10 7 7 6 6 5 4 4 5 5 5 6 8 7 7 7 6 7 6 5 5 4 4 4 4
7 5 1 2 3 4 5 4 4 7 2 3 6 5 3 1 3 5 7 8 9 8 7 7 6 6 6 6 5 6 7 7 6 6 5 6 6 7 6 5 5 4 4 4
7 3 1 2 3 4 3 6 4 3 1 6 4 5 7 7 9 7 8 11 10 8 8 7 7 7 5 5 5 5 5 6 5 5 5 5 6 6 6 5 6 5 5 5
6 4 2 4 6 10 3 3 4 4 5 6 2 6 6 8 9 14 12 11 10 10 9 8 7 6 6 5 6 6 6 6 5 5 4 6 5 6 5 5 5 5 4 5
9 5 5 7 2 2 1 6 7 7 6 2 2 9 3 3 10 15 13 12 7 7 8 8 8 8 7 7 6 7 6 6 6 5 5 5 5 4 5 5 5 6 6 5
10 3 3 6 3 3 4 5 3 4 4 8 6 9 3 4 7 8 10 8 8 9 8 8 8 8 7 7 7 7 7 7 6 5 5 4 3 4 4 5 5 4 4 4
5 5 8 10 7 7 5 6 5 6 4 5 13 13 2 4 7 6 7 7 7 6 7 8 6 8 8 7 7 7 7 7 6 5 4 3 2 2 3 4 4 4 4 5
5 6 4 3 3 5 6 7 11 11 12 12 13 14 9 12 10 10 9 6 6 8 8 7 9 10 7 7 7 6 6 6 6 6 5 5 3 3 4 3 2 3 4 5
3 2 3 1 2 4 3 9 8 15 5 4 3 12 5 4 3 5 9 8 8 7 7 8 7 7 9 9 9 7 7 7 6 7 6 5 4 4 3 1 2 3 4 5
6 7 4 6 3 5 9 12 14 6 7 10 13 13 5 5 8 9 9 8 8 8 8 8 9 10 8 9 9 9 8 6 6 6 5 4 4 4 2 2 3 4 4 5
7 6 1 5 3 8 4 4 2 13 6 6 1 4 7 6 6 6 6 7 9 8 8 7 7 7 8 6 7 5 7 6 7 6 5 5 4 3 2 2 2 3 3 5
2 5 4 5 6 7 3 6 8 9 10 11 12 12 6 6 5 6 8 8 8 9 8 8 7 6 4 6 6 6 6 7 7 7 6 5 3 3 3 3 3 3 4 5
4 3 6 4 4 9 2 2 5 5 9 9 12 10 7 6 2 6 6 6 9 8 5 7 7 4 5 6 6 7 7 7 8 6 5 4 4 4 1 2 3 1 3 7
4 1 8 4 5 8 5 6 4 7 8 4 6 5 7 5 7 5 4 5 7 8 10 6 7 8 9 6 7 8 7 10 5 6 5 4 3 2 0 1 1 2 4 6
9 9 5 2 3 11 8 4 9 6 2 6 6 7 8 7 7 5 7 7 7 10 8 8 7 8 6 7 9 8 10 6 6 5 4 3 2 1 1 1 2 3 3 5
4 7 9 12 8 0 12 4 6 5 6 5 6 7 8 8 8 9 8 9 9 9 9 5 8 8 6 7 8 9 6 8 7 5 4 3 1 2 2 2 4 3 3 3
4 3 3 4 4 6 9 6 2 7 7 5 6 7 7 7 9 8 6 7 8 8 9 5 5 7 8 6 7 5 8 7 6 5 4 3 2 3 3 3 4 3 4 4
5 8 6 2 0 2 6 7 7 8 6 5 6 8 10 8 9 7 7 7 8 8 4 5 8 8 9 9 7 6 7 7 5 4 3 3 3 4 3 5 5 5 6 7
7 8 6 5 8 7 6 10 10 9 9 10 8 6 7 8 9 6 8 8 7 7 3 4 6 5 6 7 7 6 6 6 6 4 4 4 4 3 4 4 5 12 14 16
Wind_Direction
35 121 207 199 200 147 148 182 214 248 231 162 243 243 286 48 83 103 98 84 63 43 353 359 2 360 10 23 32 31 42 26 45 42 58 56 56 39 46 46 40 38 32 30
58 224 222 146 162 183 142 168 238 286 248 167 280 264 101 26 54 143 137 119 102 68 23 8 6 11 15 10 18 25 29 28 40 59 62 86 95 61 61 48 43 37 40 37
174 211 141 158 165 172 197 197 192 219 1 275 349 292 181 53 79 66 70 115 104 108 81 28 19 13 3 17 10 24 25 32 39 40 79 90 81 66 42 32 39 32 33 32
230 252 177 173 200 148 198 200 192 170 112 230 106 272 298 168 155 158 160 148 146 137 86 54 34 31 16 11 9 21 29 33 32 48 69 70 77 77 23 41 39 45 41 39
233 172 182 204 202 168 211 125 160 154 144 92 276 339 257 133 227 200 199 184 172 156 139 111 69 47 26 17 17 14 36 47 35 45 65 81 85 87 84 57 52 37 36 37
236 257 170 202 111 173 145 79 53 53 75 303 228 183 257 195 206 164 173 191 191 181 169 146 122 109 103 76 57 46 61 51 46 58 62 76 85 80 72 52 51 33 25 33
202 215 205 156 90 57 97 103 14 355 5 230 342 157 244 188 191 188 183 187 195 197 170 171 157 137 115 109 96 75 76 69 58 68 64 72 78 79 77 68 63 54 38 28
168 235 167 190 189 172 181 162 156 205 199 251 127 234 265 297 327 265 160 167 173 193 201 188 169 150 138 110 93 102 97 87 73 77 74 71 70 76 73 71 66 54 49 34
161 264 67 84 142 140 188 188 159 105 54 60 210 278 250 31 44 90 134 151 192 200 198 192 180 180 162 149 147 133 105 96 91 98 100 79 81 79 80 72 68 58 43 27
206 129 170 159 110 34 156 161 80 4 227 263 258 256 225 220 200 160 183 193 203 200 195 192 194 189 178 163 151 129 128 133 134 113 99 95 88 79 81 76 58 43 31 22
155 133 207 128 205 171 146 179 74 134 151 187 283 253 213 220 171 179 203 211 200 198 198 191 194 190 182 171 166 158 157 149 138 122 111 103 91 75 65 58 43 31 17 12
193 134 164 194 108 40 322 200 162 178 223 257 138 263 14 283 175 176 192 210 209 199 197 192 189 189 181 189 181 181 172 169 169 160 136 117 106 85 63 46 33 22 16 12
179 214 80 358 28 31 208 204 142 100 79 196 169 256 41 72 155 184 187 202 198 202 201 193 190 191 192 197 193 190 188 191 179 161 140 115 86 61 45 34 24 21 4 346
134 161 168 202 182 138 178 191 194 161 177 169 231 263 211 223 215 189 198 195 198 215 216 205 187 198 198 199 197 195 202 198 184 173 157 151 150 80 49 35 25 11 359 357
177 189 137 126 128 158 189 191 191 193 215 213 252 228 186 205 202 200 201 196 212 230 223 208 206 206 195 200 206 208 213 198 185 179 178 188 149 99 76 57 15 3 10 6
350 160 95 296 94 58 255 233 182 208 187 246 255 263 170 187 161 172 206 217 240 245 233 222 215 189 198 202 209 207 211 203 178 186 191 166 124 122 129 138 18 13 5 359
162 134 121 229 86 82 282 210 197 176 189 185 212 234 147 194 209 208 218 213 219 229 232 222 210 204 199 206 206 207 205 177 175 167 159 149 146 142 107 53 24 7 350 341
133 118 147 131 78 223 251 31 56 216 229 197 29 209 196 183 206 210 193 192 218 221 220 218 210 208 215 212 207 188 169 167 163 163 160 169 162 111 98 63 19 348 351 343
133 141 138 159 201 329 232 185 157 164 247 191 210 236 182 155 126 249 208 206 209 204 203 206 204 202 193 206 190 165 154 158 160 180 178 175 128 88 39 10 355 350 339 325
47 41 201 133 206 219 346 118 125 105 269 207 194 217 155 126 153 250 192 194 210 207 202 211 209 194 197 210 162 157 174 171 193 174 163 141 113 114 54 350 343 300 306 302
118 75 217 190 229 281 217 197 159 120 250 199 174 159 147 176 200 213 163 212 208 200 204 187 178 201 214 170 157 190 168 203 157 136 133 129 113 114 157 271 247 279 291 299
155 164 194 120 200 262 158 65 170 197 32 159 171 175 181 211 237 226 233 243 230 216 200 201 205 223 212 168 167 186 198 142 135 138 140 138 112 336 329 233 272 285 275 280
218 189 180 191 201 231 187 185 187 163 150 196 178 200 197 202 228 233 227 225 224 221 223 205 203 220 196 176 181 187 172 144 146 146 156 167 221 245 251 251 275 280 249 258
258 160 211 104 187 196 210 233 234 189 208 182 212 199 186 214 233 245 247 238 223 221 226 201 161 209 219 185 181 164 147 142 144 155 178 178 209 270 253 255 249 220 247 253
190 136 155 270 145 83 276 232 231 213 218 212 202 212 213 211 255 234 250 243 232 227 211 179 203 217 217 165 161 148 141 139 155 151 183 209 213 223 256 252 245 245 241 231
175 173 166 206 195 165 199 218 224 216 223 224 221 242 227 196 232 222 240 237 230 236 184 207 217 202 176 161 154 148 145 149 153 178 196 204 222 222 242 250 274 275 279 281